Tracking 20083 objects as of 9-Dec-2019
HD Live streaming from Space Station
objects crossing your sky now

FENGYUN 1C DEB

Track FENGYUN 1C DEB now!
10-day predictions


NORAD ID: 32153
Int'l Code: 1999-025CSX
Perigee: 596.6 km
Apogee: 915.4 km
Inclination: 98.6 °
Period: 99.8 minutes
Semi major axis: 7127 km
RCS: 0.0005 m2 (small)
Launch date: May 10, 1999
Source: People's Republic of China (PRC)
Launch site: Taiyaun Space Center, China (TSC)

Note: This is SATELLITE DEBRIS
aabbcc
Your satellite tracking list
Your tracking list is empty




NASA's NSSDC Master Catalog

Two Line Element Set (TLE):
1 32153U 99025CSX 19341.56102395  .00000049  00000-0  23942-4 0  9995
2 32153  98.5896  95.7816 0223670 337.4505  21.6972 14.42917047654960
Source of the keplerian elements: AFSPC